CZ-4 DEB, 26150

Orbit data source: Space-Track

CZ-4 DEB, 26150 is space debris in SSO originally from a launch on Thu, 14 Oct 1999 UTC launched from the Taiyaun Space Center, China (TSC). Debris objects in space refer to the collection of defunct objects orbiting the Earth. Examples of debris include non-operational satellites, rocket bodies, and fragments generated from explosions, collisions, or faulty payload assembly.

Loading next visibility...
Identifier
26150, 1999-057AL
Orbit
SSO
Country
Flag of CNCN / PRC
Related business
Manufacturer
Unknown
Mission
Spacecraft
Bus & Motor
Unknown
Mass
Unknown
Launch date (UTC)
1999-10-14 (26 years ago)
Launch vehicle
Unknown
Launch site
Taiyaun Space Center, China (TSC)
Object type
Payload
Rocket body
Debris
Shape & HBR
Unknown shape, 0.1 m
Radar Cross Section
Small (<0.1 m²)

Expand to show TLE details & history
Last TLE update: 1 day ago

TLE from 1 day ago
0 CZ-4 DEB
1 26150U 99057AL  25342.20688719  .00001686  00000-0  10444-2 0  9997
2 26150  99.1086  62.4685 0339517 229.7396 188.9214 13.81624773289022
Epoch: 2025-12-08T04:57Z
TLE epoch observation values (Epoch: 2025-12-08T04:57:55.053Z)
Latitude
57.03424°
Longitude
-103.45913°
Altitude
1,213.931 km
Speed
7.13 km/s
True Right ascension
03h 12m 55s
True Declination
56° 53' 11"
Sunlit
Object was in full shadow at epoch
Visualization orbit readout
Latitude
Unknown
Longitude
Unknown
Altitude
Unknown
Speed
Unknown
Apparent Right ascension
Unknown
Apparent Declination
Unknown
Sunlit
N/A
Visualization observer readout
Local Sidereal Time
03:32:52
Azimuth
Unknown
Elevation
Unknown
Doppler factor
Unknown
Orbital elements
Apogee altitude
1,204.339 km
Perigee altitude
706.37 km
Semi-major axis
7,333.491 km
Eccentricity
0.03395
Inclination
99.1086°
RAAN
62.4685°
Arg. of periapsis
229.7396°
True anomaly
188.34238°
Mean anomaly
188.9214°
Eccentric anomaly
188.62952°
Mean motion
3.45603 °/min
Orbital period
104.17 mins
BSTAR
0.0010444
Loading maneuver chart data...
Computing Atmospheric mass density...
Loading historical data...
Loading historical data...
Loading historical data...
Loading historical data...
Loading historical data...
Loading historical data...
Loading historical data...

Documentation

Showing up to 5 results
|